Simultaneous Nadir Overpasses (SNOs) Predictions

Prediction of SNOs between NOAA-19 and NPP Satellite Orbit:

Table of predicted SNOs for the next 14.0 days since TLE Epoch: 12/31/2012
Index Date (NOAA-19) Time (NOAA-19) Lat,Lon (NOAA-19) SZA (NOAA-19 ) Date (NPP) Time (NPP) Lat,Lon (NPP) SZA (NPP ) Distance(km) Time Diff (sec)
1 01/03/2013 17:58:28 -80.86, 39.06 73.03 01/03/2013 17:59:39 -80.85, 39.17 73.08 2.00 71
2 01/03/2013 18:49:33 80.81,-152.66 106.82 01/03/2013 18:50:22 80.81,-152.68 106.80 0.44 49
3 01/03/2013 19:40:29 -80.80, 14.91 73.24 01/03/2013 19:41:06 -80.80, 14.81 73.24 1.88 37
4 01/03/2013 20:31:37 80.80,-177.88 106.77 01/03/2013 20:31:51 80.79,-177.75 106.74 2.24 14
5 01/03/2013 21:22:32 -80.77, -9.96 73.34 01/03/2013 21:22:34 -80.76, -9.91 73.35 0.78 2
6 01/03/2013</
